Member area
Imprimable
Andenne, 19/03/2017, BEL - Trail de la Primavera
List of reports > 12.9km - Result
Search: Page: [1]
80 Entries
 
Complains are not accepted anymore. Results are final.
PlaceNrNameAgeNATTimeTkmMoy.ScrCity
1.1246FEVRARD Françoise27BEL1:15:585:54 10.1925
2.1026FLAGERTHA Noémie30BEL1:17:356:01 9.9829
3.1116FCOULON Aline29BEL1:18:016:03 9.9232WALHAIN
4.1134FVALEMBOIS Cecile31BEL1:20:026:13 9.6736SOMBREFFE
5.1213FPIRAUX Elise25BEL1:20:286:15 9.6239MONT-SAINT-GUIBERT
6.1254FVAN REGENMORTER Nathalie33BEL1:26:106:41 8.9860AUDERGHEM
7.1156FVAN DER STRAETEN An36BEL1:26:306:43 8.9562GENT
8.1151FELTRUDIS Marie-Valérie37BEL1:27:326:48 8.8465NANINNE
9.1008FLEQUEUX Sarah38BEL1:27:516:49 8.8167BAS-OHA
10.1012FPIOT Nadine34BEL1:27:566:49 8.8069CINEY
11.1054FHONDEQUIN Annabelle36BEL1:29:126:55 8.6875YVOIR
12.1127FGODDEERIS Laura28BEL1:29:466:58 8.6280NAMUR
13.1091FPIRON Helene28BEL1:31:297:06 8.4686
14.1119FPAYET-TAILLE Hélèbe26BEL1:31:437:07 8.4490BRUXELLES
15.1130FMOREAU Christine35BEL1:32:357:11 8.3693EMBOURG
16.1143FLÉONARD Celine35BEL1:32:367:11 8.3694LIGNY
17.1055FVERHAEGHE Aline34BEL1:33:107:14 8.3199COURRIÈRE
18.1049FHENROT Geraldine40BEL1:33:347:16 8.27100FERNELMONT
19.1013FJOASSIN Caroline35BEL1:33:427:16 8.26101MALONNE
20.1060FBERTINCHAMPS Julie36BEL1:33:497:17 8.25102MALONNE
21.1059FSCIUS Pauline26BEL1:34:387:21 8.18105DAVE
22.1216FSCHOLTEN Stephanie39BEL1:34:467:21 8.17107GEMBLOUX
23.1108FHENNIN Stephanie40BEL1:36:517:31 7.99112
24.1175FJANIA Martine36BEL1:37:517:36 7.91116
25.1075FDEBATTY Marine28BEL1:38:207:38 7.87117MALONNE
26.1031FMESTRÉ Sabine37BEL1:38:277:38 7.86119DAVE
27.1063FROUSSEAU Isaline36BEL1:38:287:38 7.86120COUTHUIN
28.1135FMORSOMME Hélène26BEL1:38:407:39 7.84123A
29.1241FDUFIEFS Marie-Laure28BEL1:39:207:43 7.79124NAMUR
30.1237FDAMBRIN Jade27BEL1:39:557:45 7.75127ANDOY-WIERDE
31.1234FLEY-VAN DER SPIEGEL Alexandra40BEL1:40:007:46 7.74128MEISE
32.1047FEYCKERMAN Julie36BEL1:40:267:48 7.71131GRAND-LEEZ
33.1120FFONTAINE Eleonore27BEL1:40:327:48 7.70133RAMILLIES
34.1174FCAMBIER Aurelie30BEL1:40:577:50 7.67138JAMBES
35.1273FVAN ISEGHEM Stéphanie27BEL1:41:137:51 7.65139JAMBES
36.1140FCAMBIER Ludivine33BEL1:41:337:53 7.62140LANDENNE
37.1019FVAN DER LINDEN Sylvie36BEL1:41:437:54 7.61141BELGRADE
38.1089FCÉSAR Emilie29BEL1:42:177:56 7.57143NAMUR
39.1018FBEGON Amelie26BEL1:42:307:57 7.55145VEDRIN
40.1276FHERBIET Marine28BEL1:43:218:01 7.49152DINANT
41.1027FTAIS Sophie31BEL1:43:468:03 7.46156SEILLES
42.1203FVAN DER HASSELT Marie27BEL1:44:208:06 7.42157LIMAL
43.1231FADANT Natacha28BEL1:44:258:06 7.41158GRAND-LEEZ
44.1043FTHYS Vanessa37BEL1:45:068:09 7.37166VEDRIN
45.1255FD'AVOLIO Cinthya36BEL1:45:498:13 7.32170GHLIN
46.1236FBOURGUIGNON Louise24BEL1:46:038:14 7.30174HAILLOT
47.1235FBOURGUIGNON Laurane28BEL1:46:058:14 7.30175HAILLOT
48.1110FCRICKX Julie34BEL1:46:358:16 7.26176BIEZ
49.1266FRENNESON Malorie32BEL1:47:398:21 7.19181TEMPLOUX
50.1099FBERGER Julie33BEL1:48:038:23 7.16184HANNUT
51.1211FREMACLE Leslie29BEL1:48:068:23 7.16185CIPLET
52.1028FMONTALTO Laitizia38BEL1:48:518:27 7.11192ANDENNE
53.1020FLEFEVRE Delphine38BEL1:50:528:36 6.98195HERON
54.1087FMOONS Yanouck26BEL1:51:248:39 6.95197A
55.1145FBRIDOUX Sophie36BEL1:52:358:44 6.88199VEDRIN
56.1240FVANOVERBERGHE Marie33BEL1:53:088:47 6.84200AVIN
57.1044FDULIEU Julie33BEL1:54:468:54 6.74207SEILLES
58.1131FBERLIÈRE Sophie35BEL1:54:568:55 6.74208COUTHUIN
59.1242FPEETERS Céline34BEL1:55:128:56 6.72209LANDENNE
60.1005FFRANCOIS Marie25BEL1:55:178:57 6.71211HAMOIS
61.1004FHOOGEWYS Marie33BEL1:55:198:57 6.71212SOREE
62.1040FWARNANT Aline35BEL1:55:438:59 6.69213ACHET
63.1277FGERARD Alexandra35BEL1:55:458:59 6.69214DURNAL
64.1172FTRUYEN Cecile36BEL1:57:489:08 6.57225HUY
65.1074FNOEL Céline27BEL1:58:529:13 6.51228NAMUR
66.1245FCASSART Jeanne39BEL2:00:489:22 6.41231BONCELLES
67.1017FHAUTIER Catherine29BEL2:01:099:24 6.39232BOIS-DE-VILLERS
68.1209FCOPPE Estelle37BEL2:01:579:28 6.35233RAMILLIES
69.1257FROBINET Severine40BEL2:02:189:29 6.33234SCHALTIN
70.1052FMATHELOT Sabrina36BEL2:02:289:30 6.32235
71.1038FGERARD Donatienne37BEL2:03:579:37 6.24239LEUZE
72.1080FTERMOTE Kelly32BEL2:06:079:47 6.14242HEULE
73.1078FVERFAILLIE Eva22BEL2:06:179:48 6.13245MENEN
74.1051FBAELUS Sarah26BEL2:06:459:50 6.11246BEEZ
75.1136FLÉONET Aurore25BEL2:07:489:55 6.06248NAMÊCHE
76.1171FAMANT Orane26BEL2:08:289:58 6.03249GRANDRIEU
77.1260FARNOULD Aurore34BEL2:11:1210:11 5.90250CINEY
78.1176FDI FOLCO Francoise35BEL2:16:2410:35 5.67253SEILLES
79.1090FBALISTRIERI Magali38BEL2:19:5910:52 5.53254BRAINE L'ALLEUD
80.1226FHUYNH-DUC Julie35BEL2:20:5310:56 5.49255VILLERS-LE-BOUILLET
DNF: did not finish; DSQ: disqualified; Speed in km/h
Page: [1]